Temp
9 9 9 9 10 10 10 10 10 10 10 10 10 10 11 11 11 11 13 14 13 13 13 14 15 15 16 16 16 17 20 21 20 18 19 17 18 18 18 18 19 20 20 20 19
9 9 9 10 9 9 9 9 10 10 10 10 10 10 11 11 11 12 13 13 13 13 14 15 16 16 16 16 16 18 19 19 17 17 17 17 16 17 17 19 19 20 20 20 19
9 8 9 8 9 9 9 9 9 10 9 9 9 10 11 11 11 12 13 13 13 13 14 14 15 16 16 16 15 15 18 16 15 15 15 16 16 17 17 17 19 19 20 19 18
8 8 8 8 9 8 8 9 9 9 9 9 9 10 10 11 13 12 12 13 13 13 14 15 16 16 16 15 14 16 14 15 15 14 14 15 16 16 17 18 19 19 18 18 17
8 8 8 8 8 8 8 9 9 9 9 9 9 9 10 10 10 12 13 12 13 13 14 15 16 15 15 15 14 15 14 13 14 14 14 14 14 15 16 18 18 17 17 17 17
8 8 8 8 8 8 8 8 8 9 8 9 9 9 9 11 10 11 12 13 13 13 13 15 15 15 14 14 15 13 13 14 13 14 13 13 15 13 18 17 16 16 16 17 17
8 8 8 8 7 8 8 8 8 8 8 8 8 9 10 11 10 12 13 12 13 13 13 13 14 15 14 13 12 12 14 14 13 13 13 13 15 13 17 16 15 16 17 17 17
8 8 8 8 8 8 8 8 8 7 8 9 8 8 9 9 11 12 12 11 12 12 12 12 13 13 13 12 12 13 13 16 14 13 12 13 18 18 17 16 15 16 16 16 16
7 7 8 8 8 8 8 8 9 8 8 8 8 8 9 8 10 12 12 12 12 12 12 12 12 12 12 13 13 14 14 14 15 13 13 13 16 18 17 15 15 16 16 16 16
7 7 7 7 7 7 8 7 8 9 8 8 8 8 8 8 10 11 11 12 12 12 12 12 11 13 12 14 15 13 12 13 13 14 13 13 14 17 16 15 15 15 15 15 15
7 7 6 7 7 7 7 7 9 8 9 8 7 9 8 8 11 12 12 12 13 12 12 10 13 13 12 11 11 10 11 11 12 13 12 14 15 16 16 15 15 13 13 14 15
7 7 7 7 6 7 7 7 7 7 6 6 8 8 8 11 11 12 12 12 12 11 11 12 11 11 11 10 11 11 11 12 13 13 13 15 15 16 15 14 14 14 13 13 14
6 6 6 7 6 5 5 5 6 6 6 5 6 7 7 11 11 11 12 11 12 11 11 12 10 10 11 10 11 12 13 12 11 13 15 14 17 15 14 14 14 14 12 12 12
6 7 7 7 6 6 5 5 6 6 8 6 6 6 8 11 10 11 11 12 11 11 11 12 10 10 11 10 12 12 13 13 12 13 13 14 14 16 14 14 14 14 13 12 11
7 7 7 7 6 6 5 6 6 6 10 7 7 8 9 10 11 11 10 12 11 11 11 10 10 10 11 11 12 13 13 13 13 12 11 14 11 17 14 15 15 14 13 11 10
8 8 8 8 7 6 6 6 6 10 9 8 7 9 11 11 10 11 11 12 11 11 11 12 11 11 13 13 13 13 13 12 13 12 12 15 13 17 15 13 13 13 11 10 9
8 8 8 8 8 7 7 7 10 10 7 9 9 10 10 10 10 10 11 11 12 11 10 11 12 12 12 13 13 12 11 13 14 12 15 14 12 16 13 11 10 10 9 9 8
8 8 8 7 6 6 6 9 10 9 8 9 11 11 11 11 10 10 11 12 11 12 11 12 12 13 12 13 13 11 11 13 14 15 16 13 13 15 10 10 9 8 8 8 7
9 9 8 6 7 6 10 9 9 10 11 11 11 12 11 11 12 11 12 13 12 12 12 12 12 13 12 14 12 11 12 12 12 13 13 16 14 11 10 9 8 7 7 7 7
8 8 8 8 7 7 11 8 10 10 11 12 12 12 12 12 13 12 13 13 13 12 13 12 12 14 13 13 14 13 14 12 12 14 15 17 15 13 10 9 8 7 7 6 6
9 12 11 11 10 12 10 10 11 11 11 12 12 12 12 12 13 13 13 13 13 13 13 13 14 14 14 13 15 13 13 13 13 13 15 16 17 11 9 8 8 7 7 6 6
9 11 12 12 11 9 10 11 10 11 12 12 13 13 13 12 13 13 14 13 13 13 13 13 13 12 15 14 14 15 15 14 14 14 15 15 16 12 10 9 8 8 7 7 8
10 10 12 13 12 11 11 11 11 12 11 13 13 13 13 13 13 13 13 14 13 13 13 13 13 13 14 14 14 14 14 13 13 13 14 15 18 13 11 9 9 8 9 10 10
11 11 12 10 8 11 12 12 12 11 12 12 13 13 13 13 13 13 14 13 12 13 12 13 13 14 16 16 15 14 14 13 13 14 16 16 17 13 11 11 10 11 12 12 11
11 10 8 12 12 11 12 11 12 12 13 13 13 12 13 14 14 14 13 13 12 12 12 13 13 12 14 14 13 14 14 14 12 14 15 16 15 16 15 13 13 13 12 12 11
12 11 7 10 8 12 11 11 11 11 12 13 13 12 13 14 13 14 13 13 14 13 13 11 13 12 11 13 13 13 14 14 14 14 13 14 14 16 16 15 14 13 12 12 12
5 7 11 9 11 13 12 11 11 10 12 11 11 12 13 13 12 13 12 12 12 12 13 12 12 12 14 13 13 14 15 15 15 15 15 15 17 14 13 13 13 14 13 12 12
Height
791 790 790 790 790 789 789 789 791 790 791 792 793 793 793 795 800 802 801 800 800 801 803 806 806 807 808 810 812 812 806 802 806 812 811 818 817 818 819 816 813 810 809 806 806
787 787 786 786 787 787 787 788 789 790 790 791 791 791 792 793 797 800 800 799 802 803 805 805 807 807 809 812 815 809 808 806 815 815 816 819 821 819 818 813 811 808 806 807 807
783 783 783 783 784 785 786 786 786 788 790 789 791 791 791 793 798 798 798 801 803 803 805 806 808 808 810 813 818 817 811 819 822 822 823 821 819 819 818 813 807 807 804 805 806
780 780 780 781 782 783 783 782 785 787 788 790 790 791 791 793 796 797 799 803 803 804 806 806 807 807 810 813 819 818 821 821 824 826 825 823 821 819 817 808 805 805 805 805 804
776 777 778 779 780 780 780 781 783 784 786 789 788 790 792 795 794 797 800 802 804 805 806 805 806 809 811 815 820 818 823 826 825 827 827 826 824 821 811 806 806 806 806 804 803
772 774 776 778 778 778 779 780 782 783 786 788 788 790 792 794 794 796 800 801 804 806 808 808 808 811 815 820 821 824 825 823 826 826 826 828 820 824 801 805 806 804 802 800 798
767 771 773 775 776 777 779 780 781 781 785 788 789 790 790 790 794 799 800 801 804 808 809 811 811 811 816 822 828 827 822 821 825 825 823 824 810 814 804 806 805 801 797 795 793
763 770 771 772 773 775 776 778 780 781 783 787 788 790 791 790 794 797 799 802 806 808 810 813 813 815 819 826 827 824 822 811 823 823 825 821 795 797 801 801 799 797 793 790 789
762 768 770 771 772 774 776 777 776 778 782 786 789 788 792 791 795 799 801 804 808 811 813 814 815 821 824 819 823 819 818 819 816 822 821 819 802 793 797 799 796 791 788 787 785
767 771 771 772 774 775 776 775 775 774 784 788 791 794 795 798 798 802 805 808 810 813 814 817 819 819 822 817 809 822 825 823 820 819 819 816 806 796 794 795 794 791 789 787 783
772 773 774 774 775 776 776 777 780 786 787 793 797 794 797 800 802 807 808 809 812 814 813 821 814 817 823 827 829 833 830 833 822 820 823 807 801 792 790 795 793 796 793 788 782
775 776 776 777 775 775 776 779 780 785 794 796 797 798 803 803 806 809 811 811 813 816 818 817 820 827 829 832 831 830 827 821 816 820 817 800 791 786 791 794 796 795 795 790 783
780 780 779 779 778 776 779 783 783 783 798 807 806 807 811 809 807 812 813 814 815 817 818 813 828 829 827 834 829 822 819 820 824 815 805 803 776 787 790 792 794 793 796 794 790
784 781 781 779 782 781 784 785 785 785 791 813 812 816 814 809 814 816 816 817 817 820 820 819 829 828 829 832 825 818 817 817 819 817 811 810 797 779 787 786 789 790 794 793 792
787 785 782 779 781 785 790 789 785 787 783 819 816 819 816 813 815 818 819 815 816 818 821 828 826 828 823 822 821 816 817 816 817 819 820 803 816 773 785 781 785 789 793 796 795
792 789 788 788 784 788 790 789 790 778 800 817 818 816 811 813 818 819 819 819 821 819 820 820 826 824 816 817 817 816 816 815 810 818 811 794 805 772 780 790 790 792 798 799 798
793 792 790 789 791 788 788 788 776 781 822 818 815 812 812 816 818 820 820 817 815 818 824 819 819 818 819 815 817 819 822 807 806 814 794 798 804 777 789 799 799 800 801 800 800
790 789 790 789 787 788 790 785 786 811 812 818 810 809 811 816 821 821 817 813 820 813 821 814 812 812 815 811 814 818 820 813 804 790 787 798 794 777 801 802 804 806 804 801 801
786 787 788 786 784 786 785 792 806 808 809 806 810 807 814 815 813 817 813 810 812 813 814 811 814 812 814 810 815 818 817 818 814 804 801 775 786 796 799 803 806 807 805 804 803
787 786 787 783 783 784 778 802 805 810 807 807 803 806 806 810 809 810 809 812 812 814 812 814 813 808 812 813 810 812 811 813 814 800 784 768 779 783 798 802 805 806 806 807 805
785 783 788 785 784 784 793 804 805 808 807 805 805 806 808 808 808 808 812 813 812 813 812 810 807 808 809 809 801 812 808 810 809 805 787 777 766 791 800 803 804 805 806 807 805
789 794 791 786 792 805 805 805 809 808 809 806 806 807 806 810 807 806 807 809 809 809 808 811 812 813 800 801 802 800 798 800 800 796 791 789 772 788 797 800 804 803 805 806 804
798 801 795 791 801 806 810 809 809 806 808 804 804 805 808 806 805 806 807 806 809 809 808 811 809 805 802 803 801 798 798 801 802 803 790 784 763 787 794 800 801 802 802 798 796
801 807 803 807 817 808 806 809 808 810 809 809 807 804 804 805 806 806 806 809 811 810 813 812 809 804 791 790 794 795 795 800 798 794 780 774 768 781 789 793 795 793 791 791 791
804 816 823 811 808 811 808 814 810 811 808 808 806 810 807 803 806 807 809 807 811 812 813 813 809 810 799 795 797 793 790 791 799 787 783 769 773 764 772 780 782 784 787 789 789
806 811 824 820 824 814 813 817 816 816 816 809 809 811 807 805 808 806 811 809 807 813 812 816 808 809 807 793 794 793 786 784 783 783 784 779 774 763 765 771 776 779 782 784 784
813 814 813 822 816 811 818 820 819 820 816 816 816 813 810 812 813 811 811 811 811 811 810 811 809 808 793 795 791 781 767 772 771 771 769 771 758 765 770 772 772 773 777 778 779
Wind_Speed
12 14 14 13 10 10 10 9 7 4 5 7 3 4 3 14 9 4 5 1 7 11 9 8 8 7 6 4 3 1 3 4 2 4 4 2 1 2 1 7 5 5 9 12 21
15 16 16 13 10 8 9 9 9 4 2 6 5 4 2 17 9 4 3 8 11 11 11 11 9 8 4 3 2 2 3 2 2 2 1 1 3 6 5 7 12 13 15 14 14
13 12 11 9 8 9 9 10 10 8 3 2 4 2 11 16 5 1 8 11 12 9 8 8 10 4 5 3 2 1 0 3 2 1 4 4 9 3 7 9 10 11 14 15 17
12 8 8 5 7 7 8 9 9 7 4 2 2 3 13 9 5 2 12 12 11 11 11 11 6 4 3 4 2 3 3 1 1 0 4 7 8 9 12 18 15 16 17 19 17
11 9 7 6 5 5 3 4 7 7 2 2 4 8 11 1 4 5 15 17 14 9 9 8 7 5 7 6 5 2 3 2 4 6 9 10 14 15 20 19 16 16 16 15 15
12 8 5 4 4 2 2 2 5 7 2 4 4 11 3 7 10 12 22 18 11 10 7 3 5 8 9 4 2 3 2 4 5 5 6 6 8 4 6 3 10 12 13 13 13
14 9 6 5 3 3 5 5 3 8 4 6 2 5 4 7 17 19 20 12 12 13 9 8 10 3 6 7 3 2 3 3 2 1 1 6 9 10 8 5 10 11 14 17 19
13 9 4 3 5 5 6 6 7 7 9 7 1 6 4 8 19 19 20 17 14 15 16 11 13 10 3 7 3 0 1 2 3 2 1 4 6 3 6 13 16 17 17 16 16
2 8 2 5 4 5 4 5 6 12 14 7 4 2 5 10 14 19 18 17 17 14 11 9 6 4 4 4 2 2 1 3 1 2 2 2 11 4 13 13 16 16 14 13 15
17 9 9 8 6 4 4 15 15 25 21 12 9 3 5 6 10 14 18 14 7 12 6 4 3 3 3 2 1 3 0 3 5 2 7 12 19 15 13 11 10 9 10 9 10
16 13 12 8 5 6 16 11 8 6 14 5 2 4 9 6 16 13 11 14 6 4 3 3 3 5 7 5 7 6 1 4 7 3 7 6 16 17 11 5 7 8 9 10 10
14 12 10 12 11 10 10 4 4 6 10 16 15 15 7 10 14 10 3 3 2 5 3 3 5 6 8 6 4 3 3 5 6 4 7 13 19 15 4 1 5 8 8 12 13
13 10 9 13 15 21 19 10 12 8 6 8 7 8 4 7 9 6 2 4 6 5 5 4 6 9 4 5 4 6 5 2 3 8 6 11 9 5 4 4 2 6 7 9 12
13 10 4 1 4 6 6 10 5 1 4 7 6 5 3 4 6 5 5 2 2 6 5 5 5 5 5 4 5 3 5 3 5 8 5 5 6 6 3 3 3 8 9 9 12
11 15 18 13 7 5 4 6 7 2 6 7 4 4 6 3 12 4 5 1 4 7 3 3 8 7 5 3 8 1 2 5 8 8 8 3 4 3 2 2 6 9 9 9 10
18 8 7 13 10 4 2 4 2 1 7 2 2 6 7 6 3 3 2 4 2 3 1 3 1 3 1 5 10 3 5 6 3 1 3 4 6 2 3 7 10 8 6 8 9
13 9 10 3 3 2 2 3 1 6 2 5 4 4 5 4 5 2 2 3 1 3 1 3 4 3 3 3 4 3 3 3 1 2 4 6 5 6 3 8 6 6 7 8 8
14 5 5 5 3 6 3 2 10 4 6 2 5 9 5 1 3 2 3 3 2 1 3 1 2 5 7 2 1 1 1 2 4 3 6 4 5 2 3 4 6 7 7 6 7
9 1 4 8 2 10 2 7 5 3 3 6 4 5 3 3 2 2 2 2 2 1 3 1 1 2 4 2 4 4 3 1 3 5 4 1 2 4 3 5 5 5 6 7 7
2 2 7 9 5 4 3 10 5 2 3 1 3 3 4 3 1 1 1 2 2 2 2 1 1 1 3 3 5 3 4 2 3 3 4 2 2 4 5 5 4 2 2 3 2
4 2 19 6 8 7 6 7 6 1 1 1 3 4 4 2 3 2 2 3 3 4 1 0 2 3 2 5 4 5 3 4 3 3 3 5 2 1 3 4 2 2 4 4 5
4 4 22 8 4 3 4 3 1 2 1 2 3 3 3 3 3 2 2 1 6 5 2 2 2 3 3 2 2 4 3 2 3 2 3 3 2 3 2 3 5 5 7 7 6
3 3 11 7 4 4 3 4 4 2 3 2 2 1 1 2 2 1 1 2 5 4 2 4 1 2 2 2 3 5 5 2 3 2 5 3 2 4 4 5 7 10 10 9 7
2 3 4 4 2 3 3 5 3 2 3 3 3 1 2 3 3 3 2 2 5 3 2 3 2 6 3 3 2 4 6 5 6 3 1 8 4 7 8 10 11 12 11 9 8
3 2 1 4 6 7 4 4 4 5 5 6 4 6 3 2 2 2 1 0 1 1 2 2 4 4 11 13 10 10 11 8 8 8 6 3 6 6 13 15 15 12 10 9 9
2 3 2 2 2 3 5 5 5 3 5 4 3 2 3 2 1 1 1 1 0 2 2 1 3 3 5 1 9 12 13 13 13 11 12 13 12 10 8 10 11 12 11 11 10
3 2 3 1 2 1 2 2 3 1 2 1 2 3 2 3 4 6 5 3 2 2 3 2 2 3 4 4 8 11 14 18 9 8 9 8 4 7 9 12 14 13 12 12 11
Wind_Direction
297 295 285 268 277 289 303 268 270 288 334 334 332 295 3 162 183 182 229 185 162 150 144 122 119 108 93 85 54 278 229 211 157 172 109 108 8 109 277 279 278 274 279 297 308
299 284 282 274 270 289 290 286 244 252 316 344 337 341 217 178 154 229 238 156 149 152 147 148 139 134 91 91 53 219 248 133 58 103 122 308 316 329 299 270 271 275 273 286 300
295 287 289 279 285 287 287 278 241 226 265 47 356 23 169 159 101 328 166 153 155 153 141 131 126 105 103 118 81 126 3 120 91 37 341 313 295 287 286 277 263 271 287 295 297
296 279 278 276 285 283 281 255 234 238 220 243 323 205 177 164 166 229 162 158 150 143 134 133 132 115 113 129 93 140 102 70 180 296 320 301 310 278 265 259 284 284 291 295 289
290 286 286 276 273 283 291 248 230 204 221 248 219 179 159 142 173 158 166 140 140 133 139 138 141 132 138 122 120 160 151 210 248 268 281 281 275 279 275 273 278 285 289 284 282
272 270 259 260 270 273 211 143 222 212 215 204 202 181 153 165 157 144 146 138 134 129 120 140 133 115 106 105 199 118 207 262 286 276 266 270 275 298 271 277 294 292 282 281 280
266 261 259 254 231 210 195 198 169 196 243 191 175 178 194 125 135 146 144 124 140 134 112 104 124 109 122 125 113 128 279 263 189 197 297 290 257 232 260 304 294 282 286 293 288
238 234 204 210 212 188 188 212 213 207 214 205 210 179 148 167 129 129 124 103 105 102 105 105 103 90 70 120 102 67 228 248 140 337 125 322 288 234 277 315 304 297 290 289 291
167 130 204 173 171 182 204 238 242 214 201 168 114 318 128 117 120 116 123 117 104 98 89 90 70 75 125 150 131 62 245 288 282 360 317 326 293 287 316 313 306 305 305 303 304
106 117 113 119 136 165 108 77 95 109 120 105 44 145 144 117 122 117 118 114 105 114 90 52 76 120 105 187 211 145 203 305 282 5 298 278 273 293 313 320 328 341 332 322 321
86 98 99 90 95 120 123 110 98 62 44 116 189 86 104 132 113 111 114 109 96 64 110 40 117 99 101 84 108 118 101 280 275 290 286 286 290 295 309 297 327 341 333 328 326
80 88 95 81 68 113 151 86 95 123 61 25 75 73 85 123 114 95 84 106 100 104 107 106 101 116 118 127 136 168 246 273 279 242 285 303 296 307 229 260 330 331 329 332 333
58 66 95 72 56 73 86 94 113 93 81 35 28 55 49 84 99 76 54 98 103 91 66 102 116 149 141 160 213 230 250 267 272 315 270 299 283 182 170 225 278 339 338 333 338
39 49 40 5 36 60 57 77 97 71 92 22 42 31 22 91 63 27 28 63 97 113 109 90 157 189 187 205 210 283 200 244 306 333 314 358 296 252 196 269 233 346 335 339 335
32 47 46 80 105 64 80 60 2 316 75 5 43 145 217 49 138 52 9 31 108 140 190 147 168 173 209 219 185 345 287 276 294 295 309 168 250 275 271 346 335 343 332 344 342
33 49 70 75 62 67 93 348 304 212 69 74 331 139 110 78 63 110 47 52 58 118 60 106 181 237 246 192 208 320 315 295 264 268 257 226 210 228 26 338 326 331 0 5 3
353 22 64 93 134 217 316 346 141 52 252 39 81 111 92 81 81 64 88 130 166 146 96 181 191 204 215 228 157 227 339 358 277 227 262 162 232 308 21 337 354 25 7 12 20
338 279 332 353 272 205 160 228 63 44 61 136 115 97 81 82 76 124 146 117 165 358 114 48 130 185 173 272 39 147 119 303 287 294 317 185 242 35 52 348 22 13 0 31 41
338 308 1 336 125 161 199 58 59 90 120 138 147 100 92 89 133 181 60 61 43 203 82 70 32 120 203 152 155 133 210 193 276 234 262 203 185 146 3 346 356 12 12 46 40
26 296 22 8 126 172 95 98 91 54 112 76 64 19 101 77 141 186 62 74 99 193 291 89 125 157 123 187 220 272 6 244 189 301 302 234 261 303 333 324 346 358 36 84 105
44 39 4 35 58 45 60 79 94 95 350 87 87 86 73 94 71 113 90 156 204 152 168 321 9 105 197 201 186 187 221 215 284 245 298 314 33 185 248 253 211 223 131 129 96
42 50 354 58 54 16 57 83 154 78 207 125 97 102 149 167 119 125 132 216 173 170 107 34 76 252 227 142 262 248 220 247 259 169 258 293 305 107 187 163 200 151 156 167 165
52 0 12 45 67 44 53 66 50 67 44 95 101 58 170 124 123 99 136 50 163 176 160 165 190 295 187 196 180 224 185 209 212 248 236 279 59 127 133 162 177 162 175 186 199
81 34 5 59 96 56 63 29 70 55 68 42 52 118 129 71 42 115 131 145 189 209 174 183 250 256 281 334 351 243 207 195 206 220 215 244 284 183 180 191 194 201 204 217 225
18 103 41 2 26 43 51 11 26 21 15 23 77 38 24 78 68 56 4 28 138 101 138 249 268 233 261 264 247 257 259 226 206 239 244 10 245 215 198 200 207 213 223 232 231
93 146 166 113 305 0 21 25 28 3 353 16 61 14 47 94 64 93 318 220 245 148 208 191 284 311 281 298 231 251 247 249 246 249 252 261 268 243 205 200 209 214 218 228 231
47 75 300 4 110 117 39 22 30 289 124 33 331 310 330 16 303 296 259 233 178 224 199 216 278 321 278 345 311 269 249 222 216 220 227 221 253 170 194 207 217 222 221 227 231